x

La Perouse Bank (46206) Wave Buoy

12:00am - Sun 14th Feb 2016 All times are PST. -8 hours from GMT.

  • Sig Wave height 11.2ft
  • Peak Period 12s
  • Wind
    7mph, 11mph gusts
  • Sea Temp 51°f
  • 空気 Temp 49°f
  • Sea Pressure 1018.1mb
  • La Perouse Bank
  • La Perouse Bank

More Historic Weather Station data

Upgrade to MSW Pro to gain access to the past 30 days of data for over 8000 Wavebouys and Weather Stations around the globe.

Join Pro

Comparision Forecast

View Surf forecast
   
Sun 02/14 12:00am 11ft 12s 7 11 mph 1018.1mb 51f 49f
Sat 02/13 11:00pm 12ft 11s 9 11 mph 1017.7mb 49f 48f
10:00pm 12ft 9s 11 13 mph 1017.1mb 49f 49f
9:00pm 12ft 11s 9 13 mph 1016.1mb 50f 49f
8:00pm 12.5ft 10s 9 13 mph 1015.3mb 50f 49f
7:00pm 13ft 10s 13 16 mph 1014.5mb 50f 50f
6:00pm 14ft 12s 16 20 mph 1013.3mb 50f 50f
5:00pm 13ft 10s 20 25 mph 1012mb 50f 50f
4:00pm 13.5ft 14s 18 22 mph 1011.1mb 50f 51f
3:00pm 12.5ft 14s 18 25 mph 1010.9mb 50f 50f
2:00pm  -   -  29
mph
- - 49f
1:00pm 11.5ft 14s 29 36 mph 1013.2mb 49f 48f
12:00pm 11.5ft 14s 25 29 mph 1016.2mb 49f 47f
11:00am 11.5ft 14s 27 31 mph 1017.9mb 49f 47f
10:00am 12ft 14s 25 29 mph 1018.3mb 49f 47f
9:00am 11ft 14s 25 34 mph 1018.9mb 49f 49f
8:00am 10ft 14s 20 25 mph 1019.9mb 49f 49f
7:00am 10.5ft 14s 18 22 mph 1020.3mb 49f 49f
6:00am 10ft 14s 13 16 mph 1020.1mb 49f 49f
5:00am 11ft 14s 11 13 mph 1020.9mb 49f 49f
4:00am 10.5ft 14s 13 18 mph 1020.5mb 49f 49f
3:00am 10ft 11s 13 18 mph 1020.3mb 50f 48f
2:00am 10.5ft 16s 16 18 mph 1019.8mb 50f 49f
1:00am 10ft 15s 13 20 mph 1019mb 50f 49f
12:00am 10ft 16s 13 18 mph 1018.7mb 51f 47f
Fri 02/12 11:00pm 10ft 14s 11 16 mph 1018.6mb 51f 48f
10:00pm 9.5ft 14s 11 13 mph 1018.4mb 51f 47f
9:00pm 10ft 15s 20 25 mph 1018.2mb 51f 46f
8:00pm 10ft 12s 13 16 mph 1017.8mb 51f 51f
7:00pm 11ft 15s 13 18 mph 1018.3mb 51f 50f
6:00pm 11ft 14s 16 20 mph 1018.1mb 51f 50f
5:00pm 11.5ft 13s 16 18 mph 1017.7mb 51f 50f
4:00pm 11ft 16s 18 20 mph 1017.4mb 51f 51f
3:00pm 11ft 16s 16 20 mph 1017mb 51f 51f
2:00pm 10.5ft 17s 16 20 mph 1016.8mb 51f 51f
1:00pm 10.5ft 16s 13 18 mph 1016.9mb 51f 51f
12:00pm 11ft 16s 11 16 mph 1017.3mb 51f 51f
11:00am 12ft 17s 13 16 mph 1017.3mb 51f 51f
10:00am 10.5ft 13s 13 18 mph 1016.7mb 51f 51f
9:00am 11.5ft 17s 13 18 mph 1016.6mb 51f 51f
8:00am 12ft 11s 11 13 mph 1015.9mb 51f 51f
7:00am 12ft 18s 11 13 mph 1015.1mb 51f 51f
6:00am 12.5ft 14s 16 18 mph 1014.5mb 51f 51f
5:00am 12.5ft 17s 20 25 mph 1014mb 51f 51f
4:00am 13ft 17s 20 25 mph 1013.7mb 51f 51f
3:00am 11ft 15s 20 22 mph 1013.8mb 51f 51f
2:00am 11ft 12s 16 18 mph 1014mb 51f 51f
1:00am 12ft 18s 13 18 mph 1014.1mb 51f 52f
12:00am 11.5ft 13s 13 18 mph 1014.1mb 51f 52f
Thu 02/11 11:00pm 12ft 17s 20 25 mph 1014mb 51f 50f
10:00pm 12ft 17s 27 31 mph 1014.1mb 51f 49f
9:00pm 12ft 13s 27 34 mph 1014.4mb 51f 49f
8:00pm 11.5ft 16s 27 36 mph 1014.6mb 51f 49f
7:00pm 13ft 18s 29 36 mph 1014.9mb 51f 49f
6:00pm 12ft 18s 29 40 mph 1014.8mb 51f 49f
5:00pm 11.5ft 13s 31 38 mph 1014.7mb 51f 49f
4:00pm 11.5ft 13s 31 40 mph 1014.6mb 51f 49f
3:00pm 11ft 14s 29 38 mph 1014.5mb 51f 49f
1:00pm 11.5ft 18s 31 36 mph 1015.2mb 50f 49f
12:00pm 10ft 18s 27 34 mph 1016.2mb 50f 49f
11:00am 10ft 18s 25 31 mph 1017.1mb 50f 50f
10:00am 10ft 18s 25 31 mph 1017.4mb 50f 50f
9:00am 9.5ft 18s 25 31 mph 1017.9mb 50f 50f
8:00am 9ft 18s 25 31 mph 1018.4mb 50f 50f
7:00am 8.5ft 18s 22 29 mph 1019mb 50f 49f
6:00am 8.5ft 18s 22 27 mph 1019.3mb 50f 50f
5:00am 8ft 18s 20 25 mph 1020.4mb 50f 50f
4:00am 8ft 10s 18 22 mph 1021.4mb 50f 49f
3:00am 8ft 10s 18 22 mph 1021.9mb 51f 49f
2:00am 7.5ft 10s 13 18 mph 1022.7mb 50f 49f
1:00am 8ft 10s 16 20 mph 1022.9mb 50f 49f
12:00am 8ft 10s 20 22 mph 1023.6mb 50f 49f
Wed 02/10 11:00pm 8ft 11s 13 18 mph 1024.3mb 50f 50f
10:00pm 8ft 11s 11 13 mph 1024mb 49f 50f
9:00pm 8ft 11s 9 11 mph 1024mb 50f 50f
8:00pm 8.5ft 9s 9
mph
1024.2mb 50f 50f
7:00pm 8ft 11s 9 11 mph 1024.3mb 50f 51f
6:00pm 8ft 10s 9 13 mph 1024mb 50f 51f
5:00pm 8ft 8s 9 11 mph 1023.3mb 50f 51f
4:00pm 8ft 12s 7 9 mph 1022.3mb 50f 51f
3:00pm 7.5ft 7s 9
mph
1021.4mb 50f 52f
2:00pm 7.5ft 6s 16 18 mph 1019.5mb 50f 52f
1:00pm 8ft 10s 18 22 mph 1018.2mb 50f 52f
12:00pm 7ft 8s 22 29 mph 1017.5mb 50f 51f
11:00am  -   -  22
mph
1017.5mb - 52f
10:00am 7ft 11s 22 27 mph 1016.8mb 51f 51f